Volver al catálogo

CAPELLA-11

ACADIA

ActivoCienciaLEO
NORAD 57693·PAYLOAD·🇺🇸 United States

Lanzado Aug 23, 2023 desde Rocket Lab Launch Complex 1

Loading…

Próximos Pases (próximas 24 horas)

TLE

ActualizadoSource: Space-Track

Época: Sep 14, 2026, 03:58 UTC

1 57693U 23126A   26257.16552987  .00004034  00000-0  45914-3 0  9996
2 57693  53.0056 157.6061 0001740  41.6160 318.4953 14.88142625165351

Sigue CAPELLA-11 en tiempo real con AllMySat

Download on the App Store